SCP
0 0 0 0 0 0 0 0 0 0 0 0 0 0 0 0 0 0 0 0 0 0 0 0 0 0 0 0 0 0 0 0 0 0 0 0 0 0 0 0 0 0 0 0
0 0 0 0 0 0 0 0 0 0 0 0 0 0 0 0 0 0 0 0 0 0 0 0 0 0 0 0 0 0 0 0 0 0 0 0 0 0 0 0 0 0 0 0
0 0 0 0 0 0 0 0 0 0 0 0 0 0 0 0 0 0 0 0 0 0 0 0 0 0 0 0 0 0 0 0 0 0 0 0 0 0 0 0 0 0 0 0
0 0 0 0 0 0 0 0 0 0 0 0 0 0 0 0 0 0 0 0 0 0 0 0 0 0 0 0 0 0 0 0 0 0 0 0 0 0 0 0 0 0 0 0
0 0 0 0 0 0 0 0 0 0 0 0 0 0 0 0 0 0 0 0 0 0 0 0 0 0 0 0 -0 -0 0 0 0 0 0 0 0 0 0 0 0 0 0 0
0 0 0 0 0 0 0 0 0 0 0 0 0 0 0 0 0 0 0 0 0 0 0 0 0 0 0 -0 -0 -0 0 0 0 0 0 0 0 0 0 0 0 0 0 0
0 0 0 0 0 0 0 0 0 0 0 0 0 0 0 0 0 0 0 0 0 0 0 0 0 0 0 -0 -0 0 0 0 0 0 0 0 0 0 0 0 0 0 0 0
0 0 0 0 0 0 0 0 0 0 0 0 0 0 0 0 0 0 0 0 0 0 0 0 0 0 0 0 0 0 0 0 0 0 0 0 0 0 0 0 0 0 0 0
0 0 0 0 0 0 0 0 0 0 0 0 0 0 -0 -0 0 0 0 0 0 0 0 0 0 0 0 0 0 0 0 0 0 0 0 0 0 0 0 0 0 0 0 0
0 0 0 0 0 0 0 0 0 0 0 0 0 0 0 0 0 0 0 0 0 0 0 0 0 0 0 0 0 0 0 0 0 0 0 0 0 0 0 0 0 0 0 0
0 0 0 0 0 0 0 0 0 0 0 0 0 0 0 0 0 0 0 0 0 0 0 0 0 0 0 0 0 0 0 0 0 0 0 0 0 0 0 0 0 0 0 0
0 0 0 0 0 0 0 0 0 0 0 0 0 0 0 0 0 0 0 0 0 0 0 0 0 0 0 0 0 0 0 0 0 0 0 0 0 0 0 0 0 0 0 0
0 0 0 0 0 0 0 0 0 0 0 0 0 0 0 0 0 0 0 0 0 0 0 0 0 0 0 0 0 0 0 0 0 0 0 0 0 0 0 0 0 0 0 0
0 0 0 0 0 0 0 0 0 0 0 0 0 0 0 0 0 0 0 0 0 0 0 0 0 0 0 0 0 0 0 0 0 0 0 0 0 0 0 0 0 0 0 0
0 0 0 0 0 0 0 0 0 0 0 0 0 0 0 0 0 0 0 0 0 0 0 0 0 0 0 0 0 0 0 0 0 0 0 0 0 0 0 0 0 0 0 0
0 0 0 0 0 0 0 0 0 0 0 0 0 0 0 0 0 0 0 0 0 0 0 0 0 0 0 0 0 0 0 0 0 0 0 0 0 0 0 0 0 0 0 0
0 0 0 0 0 0 0 0 0 0 0 0 0 0 0 0 0 0 0 0 0 0 0 0 0 0 0 0 0 0 0 0 0 0 0 0 0 0 0 0 0 0 0 0
0 0 0 0 0 0 0 0 0 0 0 0 0 0 0 0 0 0 0 0 0 0 0 0 0 0 0 0 0 0 0 0 0 0 0 0 0 0 0 0 0 0 0 0
0 0 0 0 0 0 0 0 0 0 0 0 0 0 0 0 0 0 0 0 0 0 0 0 0 0 0 0 0 0 0 0 0 0 0 0 0 0 0 0 0 0 0 0
0 0 0 0 0 0 0 0 0 0 0 0 0 0 0 0 0 0 0 0 0 0 0 0 0 0 0 0 0 0 0 0 0 0 0 0 0 0 0 0 0 0 0 0
0 0 0 0 0 0 0 0 0 0 0 0 0 0 0 0 0 0 0 0 0 0 0 0 0 0 0 0 0 0 0 0 0 0 0 0 0 0 0 0 0 0 0 0
0 0 0 0 0 0 0 0 0 0 0 0 0 0 0 0 0 0 0 0 0 0 0 0 0 0 0 0 0 0 0 0 0 0 0 0 0 0 0 0 0 0 0 0
0 0 0 0 0 0 0 0 0 0 0 0 0 0 0 0 0 0 0 0 0 0 0 0 0 0 0 0 0 0 0 0 0 0 0 0 0 0 0 0 0 0 0 0
0 0 0 0 0 0 0 0 0 0 0 0 0 0 0 0 0 0 0 0 0 0 0 0 0 0 0 0 0 0 0 0 0 0 0 0 0 0 0 0 0 0 0 0
0 0 0 0 0 0 0 0 0 0 0 0 0 0 0 0 0 0 0 0 0 0 0 0 0 0 0 0 0 0 0 0 0 0 0 0 0 0 0 0 0 0 0 0
0 0 0 0 0 0 0 0 0 0 0 0 0 0 0 0 0 0 0 0 0 0 0 0 0 0 0 0 0 0 0 0 0 0 0 0 0 0 0 0 0 0 0 0
Wind_Speed
3 4 1 2 3 4 4 5 10 10 5 6 10 16 18 11 6 6 6 6 6 8 8 6 6 6 6 6 6 7 7 6 5 4 3 3 4 4 4 5 7 7 7 8
4 1 3 2 2 2 4 6 9 9 4 6 9 14 12 7 4 4 5 6 7 8 9 8 7 6 6 6 7 7 7 7 7 5 5 5 4 4 5 5 6 7 8 9
2 3 2 1 2 3 5 6 7 9 9 4 6 9 5 3 3 4 4 5 6 7 8 9 8 7 7 7 7 8 8 8 7 7 5 4 3 3 4 5 5 7 8 9
3 3 2 2 3 2 7 5 6 7 5 5 4 7 7 4 6 5 6 6 7 8 7 8 9 9 8 9 9 8 8 8 8 7 6 6 6 6 7 5 6 7 8 9
3 1 1 3 4 2 6 5 5 3 2 3 2 3 10 4 5 6 6 6 7 7 7 8 9 9 9 9 9 8 8 9 9 8 8 7 7 7 5 5 7 8 8 9
4 2 2 3 3 2 4 4 2 3 3 3 2 2 10 4 5 5 5 7 8 8 8 9 9 9 9 9 8 8 9 10 9 9 9 8 8 8 7 8 8 7 6 7
6 3 1 1 2 3 5 6 7 8 6 6 2 4 12 7 6 5 7 8 8 8 8 9 10 10 11 11 10 9 10 11 9 9 9 8 9 9 10 10 9 8 7 6
3 6 2 1 1 1 1 4 4 2 5 8 4 8 11 6 5 5 6 7 8 8 8 9 10 11 11 11 11 10 11 11 10 8 8 7 7 7 7 9 8 9 8 8
2 6 2 1 1 3 2 1 3 4 2 6 8 9 13 6 5 5 6 7 9 10 10 11 11 11 11 11 11 11 11 11 10 9 7 6 7 7 7 8 8 8 7 7
5 5 5 3 1 1 3 5 4 3 2 7 8 7 7 7 7 6 7 8 10 10 11 12 11 10 10 10 11 11 11 11 10 9 7 6 6 7 7 8 9 9 9 8
3 3 6 3 3 4 3 2 3 2 3 3 8 11 7 7 7 7 8 9 10 11 12 12 12 11 10 10 11 10 10 10 10 9 8 6 6 6 7 7 8 8 8 8
4 3 5 7 3 2 4 5 6 4 4 5 5 14 6 6 6 6 9 10 10 11 11 11 11 11 10 10 10 10 10 10 10 8 8 6 6 6 6 7 7 7 8 9
6 4 3 6 3 1 2 3 5 4 3 5 6 15 4 4 7 8 9 11 11 12 12 11 10 9 10 10 10 10 10 10 9 8 7 6 6 5 6 7 7 7 7 8
6 5 7 9 7 4 5 5 5 6 6 8 14 20 19 15 14 13 12 12 12 12 12 11 10 9 10 10 10 10 10 9 9 8 7 7 7 6 6 7 7 6 5 5
5 6 8 12 11 8 11 12 10 13 13 13 16 17 23 18 14 13 11 11 12 12 12 11 10 9 10 10 10 10 10 10 9 8 7 7 7 6 6 6 5 5 4 4
5 5 4 9 9 10 16 17 16 17 16 19 21 24 21 16 11 11 11 11 12 12 12 11 11 11 11 11 10 10 10 9 8 8 7 7 8 7 6 5 5 4 3 3
6 5 3 7 4 5 13 13 14 11 10 11 16 18 11 10 11 10 10 10 11 12 12 12 12 11 11 11 10 10 10 8 7 7 7 7 8 8 6 5 4 4 3 3
8 6 4 4 2 11 10 4 8 9 12 13 13 12 10 12 11 10 10 9 11 11 11 11 11 11 11 10 10 9 9 8 7 7 7 7 8 7 6 5 5 4 2 2
9 8 5 3 5 13 10 5 6 7 10 10 12 13 12 9 8 8 7 7 9 11 11 10 10 11 10 10 10 9 9 8 7 7 7 7 7 6 7 6 6 3 2 2
6 6 6 5 5 10 8 3 3 3 8 7 7 10 9 4 6 9 8 9 11 11 9 9 9 9 10 10 9 9 9 8 8 8 7 7 6 6 7 6 5 3 2 2
6 6 9 9 9 13 8 4 5 3 10 4 4 7 6 6 8 9 10 10 10 11 11 10 9 9 9 9 8 8 9 9 9 8 7 7 5 5 5 5 4 3 2 1
11 9 9 7 9 14 5 8 9 11 4 3 4 6 7 8 10 11 11 11 11 11 11 10 9 10 9 8 7 8 9 9 8 7 6 6 5 4 5 4 4 3 1 1
11 12 9 13 12 6 7 9 8 3 4 5 5 6 7 9 10 11 11 11 11 11 11 9 8 10 10 8 6 8 10 8 7 6 6 5 5 4 4 4 4 4 2 1
7 4 5 8 11 8 7 7 6 6 7 7 7 7 7 10 11 12 11 11 10 10 10 8 8 9 10 9 7 8 9 7 5 6 6 5 5 5 4 3 3 3 2 1
9 7 6 9 9 7 8 9 9 8 7 8 8 8 8 9 11 11 10 11 10 10 9 8 8 9 10 9 8 8 7 5 5 5 6 5 4 4 4 4 3 4 3 3
9 10 10 11 9 7 8 6 5 6 7 7 7 8 8 7 10 10 10 9 9 9 9 9 9 9 10 9 9 7 6 4 4 5 5 4 3 4 4 4 5 6 5 6
Wind_Direction
25 59 13 271 213 221 241 255 274 270 272 286 271 280 290 299 297 285 290 293 294 291 287 291 294 293 289 290 289 285 285 284 281 265 254 241 235 237 241 233 227 226 223 214
38 327 257 255 243 246 250 272 277 286 288 287 286 284 283 286 277 273 285 295 299 309 319 318 310 303 290 283 285 288 289 283 274 259 248 243 236 238 237 237 233 231 225 216
203 252 297 290 300 299 273 245 269 288 318 317 316 300 292 300 311 308 304 300 307 306 309 315 314 307 300 292 285 285 285 282 279 272 262 259 253 247 238 237 233 236 226 216
262 279 302 301 281 270 284 259 270 294 325 311 17 308 296 311 317 315 316 318 312 309 310 315 315 310 306 296 288 281 278 278 273 267 255 246 242 244 244 237 237 237 225 220
281 308 317 278 276 245 260 295 292 291 245 302 325 257 287 319 308 308 308 311 314 310 310 314 314 308 304 300 294 286 283 280 271 261 249 245 250 250 250 243 240 239 229 219
269 281 240 250 292 265 295 336 15 53 63 314 251 216 283 264 251 280 295 308 315 315 314 312 312 312 309 305 305 299 291 287 276 263 253 243 245 250 249 245 237 236 231 223
329 313 296 298 340 1 28 37 9 357 358 272 267 244 255 253 244 250 279 298 308 311 311 313 316 316 313 311 309 307 302 295 284 269 257 246 241 241 242 240 232 233 231 228
340 304 296 352 171 308 12 106 126 265 278 296 309 253 258 258 268 270 277 289 303 308 310 312 308 307 308 309 310 309 306 300 290 276 263 249 246 243 245 243 237 231 230 228
189 273 311 323 287 148 114 118 155 151 288 284 278 283 295 274 283 287 294 306 307 309 312 311 309 307 308 308 307 306 304 302 300 294 280 257 249 248 252 258 247 235 230 225
161 267 291 313 347 35 153 144 98 109 308 292 290 273 261 286 290 302 302 302 303 308 310 311 311 308 307 306 304 305 305 304 305 300 289 274 259 254 252 255 253 236 225 222
147 204 299 328 207 194 130 135 135 147 183 227 289 276 228 237 265 279 285 292 298 302 304 307 309 307 308 312 310 308 308 310 309 307 298 284 273 268 262 256 254 245 232 222
159 144 266 260 250 187 182 185 156 173 240 217 254 274 256 245 266 273 288 297 300 299 300 302 305 309 313 315 314 313 312 312 308 307 304 291 278 276 274 272 267 252 238 223
147 136 315 326 342 14 233 213 188 170 183 207 229 266 276 293 298 292 297 302 305 306 307 308 309 311 312 313 313 314 315 315 314 311 309 302 292 282 279 279 282 266 247 226
142 174 200 227 237 208 239 233 194 179 218 237 237 262 285 293 295 300 302 302 305 305 306 308 309 309 310 311 311 313 314 314 316 314 310 306 301 285 281 283 279 272 253 232
155 222 234 252 261 254 249 250 222 216 222 237 256 265 278 287 294 297 297 302 307 308 309 308 308 308 309 311 310 311 313 315 317 315 309 306 306 293 287 287 282 275 252 244
179 230 244 264 251 254 263 258 242 238 237 244 261 272 272 282 290 291 294 300 304 305 307 307 308 309 309 308 308 311 311 311 313 311 309 313 316 312 298 289 292 293 272 252
189 199 237 269 288 294 265 240 225 223 219 220 243 256 280 294 293 291 293 295 294 297 302 304 304 303 303 302 303 307 308 309 311 309 312 316 316 314 304 297 301 298 291 272
183 187 224 273 344 254 249 199 206 225 243 231 243 263 278 278 288 287 278 277 287 294 298 300 301 302 301 300 303 305 306 307 309 308 312 313 316 314 316 304 297 299 277 267
189 188 210 218 250 272 282 240 194 211 264 238 239 261 273 285 305 292 273 272 279 286 290 293 295 297 300 302 304 308 309 307 308 305 305 309 311 310 313 311 299 296 300 295
186 191 207 205 228 253 256 216 160 112 281 252 226 256 275 302 305 291 300 299 293 292 294 296 299 301 301 303 307 308 308 307 303 302 298 298 299 302 304 307 308 303 303 294
170 195 216 223 238 260 252 178 128 187 253 262 225 249 260 245 249 278 298 297 293 294 296 297 298 298 296 302 307 303 304 302 298 299 298 297 295 300 303 308 311 311 307 312
182 186 200 195 224 250 198 149 190 225 248 255 254 254 258 265 278 288 293 295 297 298 299 299 299 297 298 301 301 299 298 296 302 303 304 304 306 309 315 317 320 324 304 303
204 196 191 200 221 239 179 203 224 227 249 258 256 265 271 281 287 293 295 295 296 295 296 297 295 297 300 299 294 292 295 299 305 306 306 307 309 311 314 317 321 323 313 269
235 202 204 245 256 254 250 254 259 251 251 262 264 269 275 279 287 292 295 297 298 298 298 300 301 301 301 302 298 290 296 300 303 304 308 313 316 319 320 318 313 309 303 289
215 183 208 247 265 284 265 245 248 255 262 268 272 269 270 276 285 289 293 295 296 298 299 300 298 297 298 303 303 302 303 305 306 304 304 309 311 312 315 317 309 305 292 271
199 190 199 234 228 221 248 243 239 251 261 266 274 282 281 275 281 290 291 293 296 299 302 303 302 300 301 303 301 302 304 298 298 302 303 306 312 313 317 324 331 327 307 310